NOAA 16 DEB, 42396

Orbit data source: Space-Track

NOAA 16 DEB, 42396 is space debris in SSO originally from a launch on Thu, 21 Sep 2000 UTC launched from the Air Force Western Test Range (AFWTR). Debris objects in space refer to the collection of defunct objects orbiting the Earth. Examples of debris include non-operational satellites, rocket bodies, and fragments generated from explosions, collisions, or faulty payload assembly.

Loading next visibility...
Identifier
42396, 2000-055SQ
Orbit
SSO
Country
Flag of USUS
Related business
Manufacturer
Unknown
Mission
Spacecraft
Bus & Motor
Unknown
Mass
Unknown
Launch date (UTC)
2000-09-21 (26 years ago)
Launch vehicle
Unknown
Launch site
Air Force Western Test Range (AFWTR)
Object type
Payload
Rocket body
Debris
Shape & HBR
Unknown shape, 0.1 m
Radar Cross Section
Medium (>0.1 m² and <1 m²)

Expand to show TLE details & history
Last TLE update: 8 hours ago

TLE from 8 hours ago
0 NOAA 16 DEB
1 42396U 00055SQ  26255.90511385  .00006994  00000-0  14111-2 0  9994
2 42396  98.8059  55.8083 0025468 104.9174 255.4848 14.61577865550124
Epoch: 2026-09-12T21:43Z
TLE epoch observation values (Epoch: 2026-09-12T21:43:21.836Z)
Latitude
0.00001°
Longitude
98.0599°
Altitude
695.606 km
Speed
7.506 km/s
True Right ascension
03h 43m 13s
True Declination
0° 00' 00"
Sunlit
Object was in daylight at epoch
Visualization orbit readout
Latitude
Unknown
Longitude
Unknown
Altitude
Unknown
Speed
Unknown
Apparent Right ascension
Unknown
Apparent Declination
Unknown
Sunlit
N/A
Visualization observer readout
Local Sidereal Time
22:24:28
Azimuth
Unknown
Elevation
Unknown
Doppler factor
Unknown
Orbital elements
Apogee altitude
703.181 km
Perigee altitude
667.203 km
Semi-major axis
7,063.329 km
Eccentricity
0.00255
Inclination
98.8059°
RAAN
55.8083°
Arg. of periapsis
104.9174°
True anomaly
255.2025°
Mean anomaly
255.4848°
Eccentric anomaly
255.34363°
Mean motion
3.65619 °/min
Orbital period
98.46 mins
BSTAR
0.0014111
Loading maneuver chart data...
Computing Atmospheric mass density...

Documentation

Showing up to 5 results
|